Miscellaneous Local Product
Issued by NWS North Platte, NE

Home | Current Version | Previous Version | Text Only | Print | Product List | Glossary On
Versions: 1 2 3 4 5 6 7 8 9 10 11 12 13 14 15 16 17 18 19 20 21 22 23 24 25 26 27 28 29 30 31 32 33 34 35 36 37 38 39 40 41 42 43 44 45 46 47 48 49 50
000
AXUS43 KLBF 030810
MISLBF


WESTERN AND NORTH CENTRAL NEBRASKA HOURLY WEATHER ROUNDUP
NATIONAL WEATHER SERVICE NORTH PLATTE NE
200 AM CST TUE MAR 03 2015

***STATIONS NOT REPORTING VARIABLES SUCH AS SKY/WEATHER OR
PRESSURE ARE PROVIDED BY THE NEBRASKA DEPARTMENT OF
ROADS...RAWS...AND APRS NETWORKS...AND ARE NOT UNDER
NATIONAL WEATHER SERVICE QUALITY CONTROL***

...OBSERVATIONS IN AND NEAR THE EASTERN PANHANDLE OF NEBRASKA...

CITY           SKY/WX    TMP DP  RH WIND       PRES   REMARKS
PINE RIDGE     LGT SNOW  30  27  88 N15G23    29.64F FOG     WCI  19
CHADRON        LGT SNOW  30  28  92 NE15      29.58F FOG     WCI  19
ALLIANCE       LGT SNOW  28  27  96 NE12      29.55F VSB 1   WCI  18
SIDNEY         FOG       29  27  92 SE5       29.57S VSB 1/4 WCI  24
WHITECLAY        N/A     29  27  94 E14         N/A  WCI  18
CRESCENT LAKE    N/A     27  26  97 NW6         N/A  WCI  21
LISCO            N/A     30  28  93 W3          N/A
BIG SPRINGS      N/A     30  29  96 CALM        N/A
LEWELLEN         N/A     27  26  94 E3          N/A
$$

...OBSERVATIONS IN NORTH CENTRAL NEBRASKA...

CITY           SKY/WX    TMP DP  RH WIND       PRES   REMARKS
VALENTINE      CLOUDY    31  25  78 S5        29.63F HAZE    WCI  26
THEDFORD       CLOUDY    28  27  96 CALM      29.62F FOG
AINSWORTH      CLOUDY    28  24  85 S7        29.63F WCI  21
O`NEILL        CLOUDY    30  19  64 S8        29.70F WCI  23
BROKEN BOW     CLOUDY    29  20  69 S9        29.65F WCI  20
BROWNLEE         N/A     28  27  99 S6          N/A  WCI  21
SPRINGVIEW       N/A     30  23  75 SW3         N/A
BREWSTER         N/A     30  27  86 S6          N/A  WCI  24
ROSE             N/A     32  27  80 SE5         N/A  WCI  27
NEWPORT          N/A     33  21  62 S7          N/A  WCI  26
SARGENT          N/A     28  20  72 CALM        N/A
COMSTOCK         N/A     33  24  71 S6          N/A  WCI  27
CHAMBERS         N/A     28  15  58 S5G15       N/A  WCI  23
EWING            N/A     29  21  71 S7          N/A  WCI  22
$$

...OBSERVATIONS IN SOUTHWEST NEBRASKA AND FAR NORTHEAST COLORADO...

CITY           SKY/WX    TMP DP  RH WIND       PRES   REMARKS
WRAY           PTSUNNY  N/A N/A N/A N6        29.55F FOG
IMPERIAL         N/A     28  24  85 N8        29.58S WCI  20
OGALLALA       FOG       29  28  99 E3        29.59S VSB 1
NORTH PLATTE   CLOUDY    28  22  78 SE3       29.62F
MCCOOK         CLOUDY    31  24  75 E8        29.60F WCI  23
LEXINGTON      CLOUDY    29  23  77 S6        29.65S WCI  23
PAXTON           N/A     28  26  91 E3          N/A
BRADY            N/A     27  21  77 CALM        N/A
GOTHENBURG       N/A     30  22  73 E3          N/A
CALLAWAY         N/A     26  21  82 S7          N/A  WCI  18
$$

...NORTH PLATTE AREA...

CITY           SKY/WX    TMP DP  RH WIND       PRES   REMARKS
AIRPORT        CLOUDY    28  22  78 SE3       29.62F
DOWNTOWN         N/A     27  22  82 CALM        N/A
$$

...SOME WEATHER OBSERVATIONS FROM AROUND THE REGION...

CITY           SKY/WX    TMP DP  RH WIND       PRES   REMARKS
DENVER         PTCLDY    32  24  72 W6        29.57F HAZE    WCI  26
LARAMIE        PTCLDY    29  22  75 SW29G40   29.51F WCI  14
CHEYENNE       CLEAR     38  19  46 W15G23    29.54R WCI  29
SCOTTSBLUFF    LGT SNOW  30  27  88 CALM      29.58F FOG
RAPID CITY     SNOW      24  22  91 N33G41    29.71R VSB 1/2 WCI   6
PIERRE         LGT SNOW  31  31 100 CALM      29.68F FOG
WINNER         CLOUDY    33  17  51 S10       29.66F WCI  25
SIOUX FALLS    CLOUDY    26  19  74 SE9       29.77F WCI  17
OMAHA          CLOUDY    32  22  66 S15       29.80F WCI  22
GRAND ISLAND   CLOUDY    29  22  75 SE8       29.71F WCI  21
KANSAS CITY    DRIZZLE   33  31  92 S14       29.88F WCI  23
WICHITA        FOG       33  32  96 S23       29.84F VSB 3/4 WCI  21
HAYS           CLOUDY    36  25  64 S16       29.65F WCI  26
LIBERAL        CLOUDY    36  30  80 S17       29.73S WCI  25
GOODLAND       CLOUDY    37  31  78 W14G24    29.56F WCI  28
$$



USA.gov is the U.S. government's official web portal to all federal, state and local government web resources and services.